Location: Elm Mott Branch
(32.1549°N, 97.5139°W)
Time: 10:57:06
(UTC+00:00)

Lacrosse 4 Rocket - Pass Details

Date: 18 November 2025
Orbit: 513 x 567 km, 68.0° (Epoch: 07 December)

Event Time Altitude Azimuth Distance (km) Brightness Sun altitude
Rises 11:59:37 0° 357° (N) 2,657 4.6 -13.4°
Reaches altitude 10° 12:02:42 10° 23° (NNE) 1,754 4.0 -12.7°
Maximum altitude 12:04:50 14° 56° (ENE) 1,500 4.1 -12.3°
Drops below altitude 10° 12:06:57 10° 90° (E) 1,738 5.2 -11.9°
Sets 12:09:59 0° 116° (ESE) 2,615 6.7 -11.2°
